• In Hungary
  • List of Countries
  • For 7 days
  • Water Temperature
  • Satellite Maps
  • Weather Map
  • News
  • Weather Widgets
  • user-avatar
    Login

    Hourly Weather Golovinscheno

    Today, 25 June, Monday

    Time Temperature Precipitation Wind Pressure Humidity
    00:00 +24°C° 0 mm 3 mps 753 mmHg 60%
    01:00 +22°C° 0 mm 3 mps 753 mmHg 61%
    02:00 +22°C° 0 mm 3 mps 753 mmHg 62%
    03:00 +22°C° 0 mm 3 mps 753 mmHg 64%
    04:00 +24°C° 0 mm 3 mps 753 mmHg 64%
    05:00 +24°C° 0 mm 3 mps 753 mmHg 63%
    06:00 +25°C° 0 mm 3 mps 754 mmHg 62%
    07:00 +27°C° 0 mm 3 mps 754 mmHg 56%
    08:00 +29°C° 0 mm 3 mps 754 mmHg 50%
    09:00 +31°C° 0 mm 2 mps 754 mmHg 43%
    10:00 +32°C° 0 mm 2 mps 754 mmHg 40%
    11:00 +32°C° 0 mm 2 mps 754 mmHg 38%
    12:00 +34°C° 0 mm 2 mps 754 mmHg 35%
    13:00 +35°C° 0 mm 2 mps 754 mmHg 34%
    14:00 +35°C° 0 mm 2 mps 754 mmHg 33%
    15:00 +35°C° 0 mm 1 mps 753 mmHg 30%
    16:00 +35°C° 0 mm 1 mps 753 mmHg 33%
    17:00 +35°C° 0 mm 1 mps 753 mmHg 36%
    18:00 +34°C° 0 mm 1 mps 753 mmHg 39%
    19:00 +32°C° 0 mm 2 mps 754 mmHg 42%
    20:00 +30°C° 0 mm 2 mps 754 mmHg 46%
    21:00 +28°C° 0 mm 2 mps 754 mmHg 49%
    22:00 +27°C° 0 mm 2 mps 754 mmHg 51%
    23:00 +26°C° 0 mm 2 mps 754 mmHg 52%

    Tomorrow, 26 June, Tuesday

    Time Temperature Precipitation Wind Pressure Humidity
    00:00 +26°C° 0 mm 2 mps 754 mmHg 54%
    01:00 +25°C° 0.1 mm 2 mps 754 mmHg 55%
    02:00 +25°C° 0.1 mm 2 mps 754 mmHg 55%
    03:00 +24°C° 0.1 mm 2 mps 754 mmHg 56%
    04:00 +25°C° 0.2 mm 2 mps 754 mmHg 56%
    05:00 +26°C° 0.2 mm 2 mps 755 mmHg 56%
    06:00 +26°C° 0.2 mm 1 mps 755 mmHg 55%
    07:00 +28°C° 0.1 mm 2 mps 755 mmHg 51%
    08:00 +30°C° 0.1 mm 2 mps 755 mmHg 47%
    09:00 +31°C° 0.1 mm 2 mps 755 mmHg 43%
    10:00 +32°C° 0 mm 2 mps 755 mmHg 41%
    11:00 +34°C° 0 mm 3 mps 754 mmHg 39%
    12:00 +35°C° 0 mm 3 mps 754 mmHg 37%
    13:00 +35°C° 0 mm 3 mps 754 mmHg 36%
    14:00 +36°C° 0 mm 3 mps 754 mmHg 36%
    15:00 +36°C° 0 mm 3 mps 754 mmHg 35%
    16:00 +35°C° 0 mm 3 mps 754 mmHg 39%
    17:00 +34°C° 0 mm 3 mps 754 mmHg 43%
    18:00 +34°C° 0 mm 3 mps 754 mmHg 47%
    19:00 +31°C° 0 mm 3 mps 754 mmHg 53%
    20:00 +29°C° 0 mm 3 mps 754 mmHg 58%
    21:00 +27°C° 0 mm 3 mps 754 mmHg 63%
    22:00 +27°C° 0.1 mm 3 mps 754 mmHg 67%
    23:00 +26°C° 0.1 mm 3 mps 754 mmHg 72%

    Day after tomorrow, 27 June, Wednesday

    Time Temperature Precipitation Wind Pressure Humidity
    00:00 +25°C° 0.1 mm 3 mps 754 mmHg 76%
    01:00 +25°C° 0.1 mm 3 mps 754 mmHg 79%
    02:00 +24°C° 0.1 mm 3 mps 754 mmHg 83%
    03:00 +24°C° 0.1 mm 3 mps 754 mmHg 86%
    04:00 +24°C° 0 mm 3 mps 754 mmHg 84%
    05:00 +25°C° 0 mm 3 mps 754 mmHg 82%
    06:00 +26°C° 0 mm 4 mps 754 mmHg 80%
    07:00 +27°C° 0 mm 4 mps 754 mmHg 73%
    08:00 +29°C° 0 mm 4 mps 754 mmHg 66%
    09:00 +30°C° 0 mm 4 mps 754 mmHg 60%
    10:00 +32°C° 0 mm 4 mps 754 mmHg 55%
    11:00 +33°C° 0 mm 4 mps 753 mmHg 50%
    12:00 +34°C° 0 mm 4 mps 753 mmHg 45%
    13:00 +34°C° 0 mm 4 mps 753 mmHg 45%
    14:00 +34°C° 0 mm 4 mps 753 mmHg 45%
    15:00 +34°C° 0 mm 4 mps 753 mmHg 44%
    16:00 +33°C° 0 mm 5 mps 753 mmHg 49%
    17:00 +32°C° 0 mm 5 mps 753 mmHg 53%
    18:00 +30°C° 0 mm 5 mps 753 mmHg 58%
    19:00 +29°C° 0.1 mm 5 mps 753 mmHg 64%
    20:00 +27°C° 0.1 mm 4 mps 753 mmHg 71%
    21:00 +25°C° 0.1 mm 4 mps 753 mmHg 77%
    22:00 +25°C° 0 mm 4 mps 753 mmHg 79%
    23:00 +23°C° 0 mm 4 mps 753 mmHg 81%

    28 June, Thursday

    Time Temperature Precipitation Wind Pressure Humidity
    00:00 +22°C° 0 mm 4 mps 753 mmHg 82%
    01:00 +22°C° 0 mm 3 mps 753 mmHg 84%
    02:00 +21°C° 0 mm 3 mps 753 mmHg 85%
    03:00 +21°C° 0 mm 3 mps 753 mmHg 86%
    04:00 +21°C° 0 mm 4 mps 753 mmHg 84%
    05:00 +22°C° 0 mm 4 mps 753 mmHg 81%
    06:00 +23°C° 0 mm 5 mps 753 mmHg 78%
    07:00 +25°C° 0 mm 5 mps 753 mmHg 72%
    08:00 +26°C° 0 mm 5 mps 753 mmHg 66%
    09:00 +28°C° 0 mm 5 mps 753 mmHg 59%
    10:00 +29°C° 0 mm 5 mps 753 mmHg 56%
    11:00 +29°C° 0 mm 6 mps 752 mmHg 52%
    12:00 +30°C° 0 mm 6 mps 752 mmHg 49%
    13:00 +30°C° 0 mm 6 mps 752 mmHg 48%
    14:00 +30°C° 0 mm 6 mps 752 mmHg 47%
    15:00 +30°C° 0 mm 6 mps 752 mmHg 46%
    16:00 +29°C° 0 mm 6 mps 752 mmHg 48%
    17:00 +28°C° 0 mm 6 mps 752 mmHg 50%
    18:00 +27°C° 0 mm 5 mps 752 mmHg 52%
    19:00 +26°C° 0 mm 5 mps 752 mmHg 57%
    20:00 +23°C° 0 mm 4 mps 752 mmHg 61%
    21:00 +21°C° 0 mm 4 mps 752 mmHg 66%
    22:00 +20°C° 0 mm 4 mps 752 mmHg 68%
    23:00 +20°C° 0 mm 4 mps 752 mmHg 70%

    29 June, Friday

    Time Temperature Precipitation Wind Pressure Humidity
    00:00 +19°C° 0 mm 4 mps 752 mmHg 72%
    01:00 +19°C° 0 mm 3 mps 752 mmHg 74%
    02:00 +18°C° 0 mm 3 mps 752 mmHg 76%
    03:00 +18°C° 0 mm 3 mps 752 mmHg 78%
    04:00 +19°C° 0 mm 4 mps 752 mmHg 76%
    05:00 +19°C° 0 mm 4 mps 752 mmHg 74%
    06:00 +20°C° 0 mm 4 mps 752 mmHg 72%
    07:00 +22°C° 0 mm 4 mps 751 mmHg 66%
    08:00 +25°C° 0 mm 4 mps 751 mmHg 59%
    09:00 +27°C° 0 mm 3 mps 751 mmHg 53%
    10:00 +28°C° 0 mm 3 mps 751 mmHg 47%
    11:00 +29°C° 0 mm 3 mps 751 mmHg 42%
    12:00 +29°C° 0 mm 3 mps 750 mmHg 37%
    13:00 +30°C° 0 mm 3 mps 750 mmHg 36%
    14:00 +30°C° 0 mm 3 mps 750 mmHg 34%
    15:00 +30°C° 0 mm 3 mps 750 mmHg 33%
    16:00 +30°C° 0 mm 3 mps 750 mmHg 37%
    17:00 +29°C° 0 mm 3 mps 750 mmHg 41%
    18:00 +29°C° 0 mm 3 mps 749 mmHg 45%
    19:00 +27°C° 0 mm 3 mps 750 mmHg 51%
    20:00 +25°C° 0 mm 3 mps 750 mmHg 57%
    21:00 +22°C° 0 mm 3 mps 750 mmHg 63%
    22:00 +22°C° 0 mm 3 mps 750 mmHg 65%
    23:00 +21°C° 0 mm 3 mps 750 mmHg 68%

    30 June, Saturday

    Time Temperature Precipitation Wind Pressure Humidity
    00:00 +20°C° 0 mm 3 mps 750 mmHg 71%
    01:00 +20°C° 0 mm 3 mps 750 mmHg 73%
    02:00 +19°C° 0 mm 3 mps 750 mmHg 75%
    03:00 +19°C° 0 mm 2 mps 750 mmHg 76%
    04:00 +20°C° 0 mm 2 mps 750 mmHg 74%
    05:00 +21°C° 0 mm 3 mps 750 mmHg 72%
    06:00 +22°C° 0 mm 3 mps 750 mmHg 69%
    07:00 +25°C° 0 mm 3 mps 750 mmHg 62%
    08:00 +27°C° 0 mm 3 mps 750 mmHg 56%
    09:00 +28°C° 0 mm 3 mps 750 mmHg 49%
    10:00 +29°C° 0 mm 3 mps 750 mmHg 44%
    11:00 +30°C° 0 mm 3 mps 750 mmHg 40%
    12:00 +31°C° 0 mm 3 mps 750 mmHg 35%
    13:00 +32°C° 0 mm 2 mps 749 mmHg 33%
    14:00 +32°C° 0 mm 2 mps 749 mmHg 32%
    15:00 +34°C° 0 mm 2 mps 749 mmHg 30%
    16:00 +32°C° 0 mm 2 mps 749 mmHg 32%
    17:00 +32°C° 0 mm 2 mps 748 mmHg 34%
    18:00 +32°C° 0 mm 2 mps 748 mmHg 36%
    19:00 +30°C° 0 mm 3 mps 748 mmHg 39%
    20:00 +28°C° 0 mm 4 mps 748 mmHg 42%
    21:00 +26°C° 0 mm 5 mps 748 mmHg 44%
    22:00 +26°C° 0 mm 5 mps 748 mmHg 45%
    23:00 +26°C° 0 mm 6 mps 747 mmHg 46%
    Show more